Загорянский

Россия / Московская область     55°55′01″N   37°55′42″E
темп.,
°C
ветер,
м/с
пор.,
м/с
влажн.,
%
обл.,
%
осадки,
мм/ч
давл.,
гПа
погр.,
м
16 июня, ср
ср1600:00+16сз239388 2.8 101062
03:00+15сз38940 3.2 1010155
06:00+16ссз310884 0.0 1010303
09:00+20ссз576685 0.0 1012747
12:00+21ссз66616 0.1 10131163
15:00+23ссз66417 0.1 10132091
18:00+21ссв46478 0.0 10151843
21:00+15с22683 0.0 101719
17 июня, чт
чт1700:00+13ссз23690 0.0 101950
03:00+11ссз23754 0.0 102159
06:00+14ссз24725 0.0 1022120
09:00+19ссв23465 0.0 1023720
12:00+22с24345 0.0 10241679
15:00+23ссз343771 0.0 10241922
18:00+22сз24450 0.0 10241699
21:00+17ссз11682 0.0 102511
18 июня, пт
пт1800:00+15юз11740 0.0 102610
03:00+13зюз11755 0.0 102710
06:00+16зюз13737 0.0 1028101
09:00+22з23515 0.0 1028608
12:00+25зюз223951 0.0 10271794
15:00+26зюз23374 0.0 10262018
18:00+25зюз24485 0.0 10251618
21:00+19ююз23750 0.0 102640
19 июня, сб
сб1900:00+17зюз25829 0.0 102794
03:00+15зюз37865 0.0 1027160
06:00+17зюз27800 0.0 1028218
09:00+23зюз34572 0.0 1027676
12:00+26юз34440 0.0 10261504
15:00+27юз34370 0.0 10251719
18:00+27юз244468 0.0 1024969
21:00+19ююз237149 0.0 102541
20 июня, вс
вс2000:00+17юз22805 0.0 102537
03:00+16зюз23895 0.0 102644
06:00+18зюз24825 0.0 1026163
09:00+23юз23590 0.0 1026767
12:00+26ююз34420 0.0 10241440
15:00+27ююз45400 0.0 10231649
18:00+26ю45490 0.0 10221248
21:00+20ю24770 0.0 102369